Time,TemperatureF,DewpointF,PressureIn,WindDirection,WindDirectionDegrees,WindSpeedMPH,WindSpeedGustMPH,Humidity,HourlyPrecipIn,Conditions,Clouds,dailyrainin,SoftwareType,DateUTC
2013-03-17 00:00:00,41.0,-99.9,-100.00,South,173,5.0,13.0,-999,-99.99,,,-99.99,,2013-03-17 07:00:00,
2013-03-17 00:02:00,38.0,-99.9,-100.00,West,263,9.0,26.0,-999,-99.99,,,-99.99,,2013-03-17 07:02:00,
2013-03-17 00:12:00,38.0,-99.9,-100.00,West,263,9.0,26.0,-999,-99.99,,,-99.99,,2013-03-17 07:12:00,
2013-03-17 00:22:00,38.0,-99.9,-100.00,West,263,9.0,26.0,-999,-99.99,,,-99.99,,2013-03-17 07:22:00,
2013-03-17 00:32:00,40.0,-99.9,-100.00,West,275,4.0,10.0,-999,-99.99,,,-99.99,,2013-03-17 07:32:00,
2013-03-17 00:42:00,40.0,-99.9,-100.00,West,275,4.0,10.0,-999,-99.99,,,-99.99,,2013-03-17 07:42:00,
2013-03-17 00:52:00,41.0,-99.9,-100.00,South,173,5.0,13.0,-999,-99.99,,,-99.99,,2013-03-17 07:52:00,
2013-03-17 01:00:00,40.0,-99.9,-100.00,WSW,242,4.0,9.0,-999,-99.99,,,-99.99,,2013-03-17 08:00:00,
2013-03-17 01:22:00,40.0,-99.9,-100.00,West,263,5.0,7.0,-999,-99.99,,,-99.99,,2013-03-17 08:22:00,
2013-03-17 01:33:00,40.0,-99.9,-100.00,WSW,242,4.0,9.0,-999,-99.99,,,-99.99,,2013-03-17 08:33:00,
2013-03-17 01:42:00,40.0,-99.9,-100.00,WSW,242,4.0,9.0,-999,-99.99,,,-99.99,,2013-03-17 08:42:00,
2013-03-17 01:52:00,40.0,-99.9,-100.00,WSW,242,4.0,9.0,-999,-99.99,,,-99.99,,2013-03-17 08:52:00,
2013-03-17 02:33:00,40.0,-99.9,-100.00,NW,306,9.0,13.0,-999,-99.99,,,-99.99,,2013-03-17 09:33:00,
2013-03-17 02:43:00,40.0,-99.9,-100.00,NW,306,9.0,13.0,-999,-99.99,,,-99.99,,2013-03-17 09:43:00,
2013-03-17 02:53:00,40.0,-99.9,-100.00,WNW,298,10.0,16.0,-999,-99.99,,,-99.99,,2013-03-17 09:53:00,
2013-03-17 03:00:00,38.0,-99.9,-100.00,West,266,8.0,16.0,-999,-99.99,,,-99.99,,2013-03-17 10:00:00,
2013-03-17 03:03:00,40.0,-99.9,-100.00,WNW,298,10.0,16.0,-999,-99.99,,,-99.99,,2013-03-17 10:03:00,
2013-03-17 03:33:00,38.0,-99.9,-100.00,West,266,8.0,16.0,-999,-99.99,,,-99.99,,2013-03-17 10:33:00,
2013-03-17 03:42:00,38.0,-99.9,-100.00,West,266,8.0,16.0,-999,-99.99,,,-99.99,,2013-03-17 10:42:00,
2013-03-17 03:53:00,38.0,-99.9,-100.00,West,266,8.0,16.0,-999,-99.99,,,-99.99,,2013-03-17 10:53:00,
2013-03-17 04:00:00,38.0,-99.9,-100.00,WNW,283,11.0,20.0,-999,-99.99,,,-99.99,,2013-03-17 11:00:00,
2013-03-17 04:23:00,40.0,-99.9,-100.00,SW,229,11.0,16.0,-999,-99.99,,,-99.99,,2013-03-17 11:23:00,
2013-03-17 04:33:00,38.0,-99.9,-100.00,WNW,283,11.0,20.0,-999,-99.99,,,-99.99,,2013-03-17 11:33:00,
2013-03-17 04:43:00,38.0,-99.9,-100.00,WNW,283,11.0,20.0,-999,-99.99,,,-99.99,,2013-03-17 11:43:00,
2013-03-17 04:52:00,38.0,-99.9,-100.00,WNW,283,11.0,20.0,-999,-99.99,,,-99.99,,2013-03-17 11:52:00,
2013-03-17 05:00:00,40.0,-99.9,-100.00,West,263,12.0,12.0,-999,-99.99,,,-99.99,,2013-03-17 12:00:00,
2013-03-17 05:33:00,40.0,-99.9,-100.00,West,263,12.0,12.0,-999,-99.99,,,-99.99,,2013-03-17 12:33:00,
2013-03-17 05:43:00,40.0,-99.9,-100.00,West,263,12.0,12.0,-999,-99.99,,,-99.99,,2013-03-17 12:43:00,
2013-03-17 05:52:00,40.0,-99.9,-100.00,West,263,12.0,12.0,-999,-99.99,,,-99.99,,2013-03-17 12:52:00,
2013-03-17 06:00:00,41.0,-99.9,-100.00,West,278,8.0,15.0,-999,-99.99,,,-99.99,,2013-03-17 13:00:00,
2013-03-17 06:33:00,41.0,-99.9,-100.00,West,278,8.0,15.0,-999,-99.99,,,-99.99,,2013-03-17 13:33:00,
2013-03-17 06:43:00,41.0,-99.9,-100.00,West,278,8.0,15.0,-999,-99.99,,,-99.99,,2013-03-17 13:43:00,
2013-03-17 06:53:00,41.0,-99.9,-100.00,West,278,8.0,15.0,-999,-99.99,,,-99.99,,2013-03-17 13:53:00,
2013-03-17 07:00:00,40.0,-99.9,-100.00,SSW,193,3.0,3.0,-999,-99.99,,,-99.99,,2013-03-17 14:00:00,
2013-03-17 07:23:00,41.0,-99.9,-100.00,WSW,238,5.0,18.0,-999,-99.99,,,-99.99,,2013-03-17 14:23:00,
2013-03-17 07:33:00,40.0,-99.9,-100.00,SSW,193,3.0,3.0,-999,-99.99,,,-99.99,,2013-03-17 14:33:00,
2013-03-17 07:43:00,40.0,-99.9,-100.00,SSW,193,3.0,3.0,-999,-99.99,,,-99.99,,2013-03-17 14:43:00,
2013-03-17 07:53:00,40.0,-99.9,-100.00,SSW,193,3.0,3.0,-999,-99.99,,,-99.99,,2013-03-17 14:53:00,
2013-03-17 08:00:00,38.0,-99.9,-100.00,NE,53,0.0,3.0,-999,-99.99,,,-99.99,,2013-03-17 15:00:00,
2013-03-17 08:33:00,38.0,-99.9,-100.00,NE,53,0.0,3.0,-999,-99.99,,,-99.99,,2013-03-17 15:33:00,
2013-03-17 08:43:00,38.0,-99.9,-100.00,NE,53,0.0,3.0,-999,-99.99,,,-99.99,,2013-03-17 15:43:00,
2013-03-17 08:53:00,38.0,-99.9,-100.00,NE,53,0.0,3.0,-999,-99.99,,,-99.99,,2013-03-17 15:53:00,
2013-03-17 09:00:00,42.0,-99.9,-100.00,NW,304,6.0,10.0,-999,-99.99,,,-99.99,,2013-03-17 16:00:00,
2013-03-17 09:34:00,42.0,-99.9,-100.00,NW,304,6.0,10.0,-999,-99.99,,,-99.99,,2013-03-17 16:34:00,
2013-03-17 09:43:00,42.0,-99.9,-100.00,NW,304,6.0,10.0,-999,-99.99,,,-99.99,,2013-03-17 16:43:00,
2013-03-17 09:53:00,42.0,-99.9,-100.00,NW,304,6.0,10.0,-999,-99.99,,,-99.99,,2013-03-17 16:53:00,
2013-03-17 10:10:00,42.0,-99.9,-100.00,West,278,12.0,19.0,-999,-99.99,,,-99.99,,2013-03-17 17:10:00,
2013-03-17 10:33:00,42.0,-99.9,-100.00,WSW,256,9.0,16.0,-999,-99.99,,,-99.99,,2013-03-17 17:33:00,
2013-03-17 10:42:00,42.0,-99.9,-100.00,WSW,256,9.0,16.0,-999,-99.99,,,-99.99,,2013-03-17 17:42:00,
2013-03-17 10:53:00,42.0,-99.9,-100.00,West,278,12.0,19.0,-999,-99.99,,,-99.99,,2013-03-17 17:53:00,
2013-03-17 11:00:00,41.0,-99.9,-100.00,WNW,292,10.0,12.0,-999,-99.99,,,-99.99,,2013-03-17 18:00:00,
2013-03-17 11:02:00,42.0,-99.9,-100.00,West,278,12.0,19.0,-999,-99.99,,,-99.99,,2013-03-17 18:02:00,
2013-03-17 11:32:00,41.0,-99.9,-100.00,WNW,292,10.0,12.0,-999,-99.99,,,-99.99,,2013-03-17 18:32:00,
2013-03-17 11:42:00,41.0,-99.9,-100.00,WNW,292,10.0,12.0,-999,-99.99,,,-99.99,,2013-03-17 18:42:00,
2013-03-17 11:52:00,41.0,-99.9,-100.00,WNW,292,10.0,12.0,-999,-99.99,,,-99.99,,2013-03-17 18:52:00,
2013-03-17 12:00:00,43.0,-99.9,-100.00,West,273,11.0,20.0,-999,-99.99,,,-99.99,,2013-03-17 19:00:00,
2013-03-17 12:34:00,43.0,-99.9,-100.00,West,273,11.0,20.0,-999,-99.99,,,-99.99,,2013-03-17 19:34:00,
2013-03-17 12:42:00,43.0,-99.9,-100.00,West,273,11.0,20.0,-999,-99.99,,,-99.99,,2013-03-17 19:42:00,
2013-03-17 12:53:00,43.0,-99.9,-100.00,West,273,11.0,20.0,-999,-99.99,,,-99.99,,2013-03-17 19:53:00,
2013-03-17 13:00:00,45.0,-99.9,-100.00,WSW,256,14.0,14.0,-999,-99.99,,,-99.99,,2013-03-17 20:00:00,
2013-03-17 13:33:00,45.0,-99.9,-100.00,WSW,256,14.0,14.0,-999,-99.99,,,-99.99,,2013-03-17 20:33:00,
2013-03-17 13:43:00,45.0,-99.9,-100.00,WSW,256,14.0,14.0,-999,-99.99,,,-99.99,,2013-03-17 20:43:00,
2013-03-17 13:52:00,45.0,-99.9,-100.00,WSW,256,14.0,14.0,-999,-99.99,,,-99.99,,2013-03-17 20:52:00,
2013-03-17 14:00:00,45.0,-99.9,-100.00,West,281,21.0,21.0,-999,-99.99,,,-99.99,,2013-03-17 21:00:00,
2013-03-17 14:33:00,45.0,-99.9,-100.00,West,281,21.0,21.0,-999,-99.99,,,-99.99,,2013-03-17 21:33:00,
2013-03-17 14:43:00,45.0,-99.9,-100.00,West,281,21.0,21.0,-999,-99.99,,,-99.99,,2013-03-17 21:43:00,
2013-03-17 14:53:00,45.0,-99.9,-100.00,West,281,21.0,21.0,-999,-99.99,,,-99.99,,2013-03-17 21:53:00,
2013-03-17 15:00:00,47.0,-99.9,-100.00,West,278,5.0,13.0,-999,-99.99,,,-99.99,,2013-03-17 22:00:00,
2013-03-17 15:34:00,47.0,-99.9,-100.00,West,278,5.0,13.0,-999,-99.99,,,-99.99,,2013-03-17 22:34:00,
2013-03-17 15:42:00,47.0,-99.9,-100.00,West,278,5.0,13.0,-999,-99.99,,,-99.99,,2013-03-17 22:42:00,
2013-03-17 15:53:00,47.0,-99.9,-100.00,West,278,5.0,13.0,-999,-99.99,,,-99.99,,2013-03-17 22:53:00,
2013-03-17 16:00:00,44.0,-99.9,-100.00,West,267,6.0,9.0,-999,-99.99,,,-99.99,,2013-03-17 23:00:00,
2013-03-17 16:33:00,44.0,-99.9,-100.00,West,267,6.0,9.0,-999,-99.99,,,-99.99,,2013-03-17 23:33:00,
2013-03-17 16:43:00,44.0,-99.9,-100.00,West,267,6.0,9.0,-999,-99.99,,,-99.99,,2013-03-17 23:43:00,
2013-03-17 16:53:00,44.0,-99.9,-100.00,West,267,6.0,9.0,-999,-99.99,,,-99.99,,2013-03-17 23:53:00,
2013-03-17 18:33:00,44.0,-99.9,-100.00,West,266,12.0,17.0,-999,-99.99,,,-99.99,,2013-03-18 01:33:00,
2013-03-17 18:42:00,44.0,-99.9,-100.00,West,266,12.0,17.0,-999,-99.99,,,-99.99,,2013-03-18 01:42:00,
2013-03-17 18:52:00,44.0,-99.9,-100.00,West,266,12.0,17.0,-999,-99.99,,,-99.99,,2013-03-18 01:52:00,
2013-03-17 19:00:00,44.0,-99.9,-100.00,WNW,283,6.0,15.0,-999,-99.99,,,-99.99,,2013-03-18 02:00:00,
2013-03-17 19:02:00,43.0,-99.9,-100.00,SW,230,7.0,12.0,-999,-99.99,,,-99.99,,2013-03-18 02:02:00,
2013-03-17 19:12:00,43.0,-99.9,-100.00,SW,230,7.0,12.0,-999,-99.99,,,-99.99,,2013-03-18 02:12:00,
2013-03-17 19:22:00,43.0,-99.9,-100.00,West,272,8.0,12.0,-999,-99.99,,,-99.99,,2013-03-18 02:22:00,
2013-03-17 19:32:00,44.0,-99.9,-100.00,WNW,283,6.0,15.0,-999,-99.99,,,-99.99,,2013-03-18 02:32:00,
2013-03-17 19:42:00,44.0,-99.9,-100.00,WNW,283,6.0,15.0,-999,-99.99,,,-99.99,,2013-03-18 02:42:00,
2013-03-17 19:52:00,44.0,-99.9,-100.00,WNW,283,6.0,15.0,-999,-99.99,,,-99.99,,2013-03-18 02:52:00,
2013-03-17 20:00:00,40.0,-99.9,-100.00,WSW,248,8.0,14.0,-999,-99.99,,,-99.99,,2013-03-18 03:00:00,
2013-03-17 20:33:00,40.0,-99.9,-100.00,WSW,248,8.0,14.0,-999,-99.99,,,-99.99,,2013-03-18 03:33:00,
2013-03-17 20:42:00,40.0,-99.9,-100.00,WSW,248,8.0,14.0,-999,-99.99,,,-99.99,,2013-03-18 03:42:00,
2013-03-17 20:53:00,40.0,-99.9,-100.00,WSW,248,8.0,14.0,-999,-99.99,,,-99.99,,2013-03-18 03:53:00,
2013-03-17 21:00:00,40.0,-99.9,-100.00,WSW,256,15.0,16.0,-999,-99.99,,,-99.99,,2013-03-18 04:00:00,
2013-03-17 21:23:00,42.0,-99.9,-100.00,WNW,283,8.0,15.0,-999,-99.99,,,-99.99,,2013-03-18 04:23:00,
2013-03-17 21:33:00,40.0,-99.9,-100.00,WSW,256,15.0,16.0,-999,-99.99,,,-99.99,,2013-03-18 04:33:00,
2013-03-17 21:43:00,40.0,-99.9,-100.00,WSW,256,15.0,16.0,-999,-99.99,,,-99.99,,2013-03-18 04:43:00,
2013-03-17 21:53:00,40.0,-99.9,-100.00,WSW,256,15.0,16.0,-999,-99.99,,,-99.99,,2013-03-18 04:53:00,
2013-03-17 22:00:00,40.0,-99.9,-100.00,WNW,283,9.0,19.0,-999,-99.99,,,-99.99,,2013-03-18 05:00:00,
2013-03-17 22:23:00,40.0,-99.9,-100.00,West,260,10.0,17.0,-999,-99.99,,,-99.99,,2013-03-18 05:23:00,
2013-03-17 22:33:00,40.0,-99.9,-100.00,WNW,283,9.0,19.0,-999,-99.99,,,-99.99,,2013-03-18 05:33:00,
2013-03-17 22:43:00,40.0,-99.9,-100.00,WNW,283,9.0,19.0,-999,-99.99,,,-99.99,,2013-03-18 05:43:00,
2013-03-17 22:52:00,40.0,-99.9,-100.00,WNW,283,9.0,19.0,-999,-99.99,,,-99.99,,2013-03-18 05:52:00,
2013-03-17 23:32:00,40.0,-99.9,-100.00,West,270,7.0,11.0,-999,-99.99,,,-99.99,,2013-03-18 06:32:00,
2013-03-17 23:42:00,40.0,-99.9,-100.00,West,270,7.0,11.0,-999,-99.99,,,-99.99,,2013-03-18 06:42:00,
2013-03-17 23:53:00,40.0,-99.9,-100.00,West,270,7.0,11.0,-999,-99.99,,,-99.99,,2013-03-18 06:53:00,